METEOR 1-17 DEB

Satellite information

Favourite Embed

Satellite Type and Status

DEBRISIN ORBIT

Key statistics

Satellite METEOR 1-17 DEB at a glance.

Uptime

18757

Days in orbit

Revolutions

≈ 14.2

Per day

Orbit

LEO

Low Earth Orbit

Inclination

81.2

Latest

Satellite identification and parameters

Extended collection of information and parameters for METEOR 1-17 DEB.

Object identification

Identified? True

Debris? True

Object name: METEOR 1-17 DEB

International designator: 1974-025C

Object number (NORAD): 57537

Object ID (CCSDS): 57537

Country: COMMONWEALTH OF INDEPENDENT STATES (CIS)

Current information (Y/N): Y

RCS size: SMALL

Orbital parameters

Period: 101.347 minutes

Inclination: 81.2061 deg

SMA: 7200.569 km

Apoapsis: 827.449 km

Periapsis: 817.418 km

RAAN: 214.5777 deg

Eccentricy: 0.00069652

Argument of periapsis: 94.2137 deg

Mean anomaly: 265.9836 deg

Mean motion: 14.20864152 rev/day

Mean motion (dot): 0.00007728 rev/day2

B* drag term: 0.0035671137 1/REarth

Two-line elements (TLE)

Creation date: Aug. 29, 2025, 9:54 a.m.

Reference frame: TEME

Reference center: EARTH

Epoch: Aug. 29, 2025, 4:51 a.m. UTC

TLE line 0: 0 METEOR 1-17 DEB

TLE line 1: 1 57537U 74025C 25241.20255032 .00007728 00000-0 35671-2 0 9996

TLE line 2: 2 57537 81.2061 214.5777 0006965 94.2137 265.9836 14.20864152109194

Live tracking on map

Real-time ground track for satellite METEOR 1-17 DEB.

In-orbit conjunctions

A list of the most updated potential collisions computed for object METEOR 1-17 DEB.

Target Orbit TCA Probability of collision Miss distance Type
NOAA 9 SSO 2025-05-11 18:28:11 0.0001310166 105.0 (m) PAYLOAD
CZ-6A DEB SSO 2025-05-10 23:30:17 0.0003336604 43.0 (m) DEBRIS
CZ-6A DEB SSO 2024-11-16 13:18:51 0.001207225 167.0 (m) DEBRIS
CZ-6A DEB SSO 2024-11-14 11:37:47 0.0006684551 168.0 (m) DEBRIS
FENGYUN 1C DEB SSO 2024-11-14 04:39:05 0.0001183057 842.0 (m) DEBRIS

Associated space launch

The Meteor-1 series was the first series of Soviet meteorological satellites.

METEOR 1-17 DEB was lifted into orbit during the mission ‘Vostok 8A92M | Meteor-1 17 (22L)’, on board a Vostok 8A92M space rocket.

The launch took place on April 24, 1974, 11:50 a.m. from 43/4 (43R).

For more information about the launch, click the button.

Launch to space Vostok 8A92M | Meteor-1 17 (22L)
Vostok 8A92M | Meteor-1 17 (22L)

Agency: N/A

Status: Launch Successful

Launch date: April 24, 1974, 11:50 a.m. UTC

Rocket: Vostok 8A92M

Launch pad: 43/4 (43R)

Location: Plesetsk Cosmodrome, Russian Federation

...

Latest news about this satellite

There are no fresh news available about this satellite. Check back as we update our databases every day.


Newsletter sign-up

Weekly statistics, charts and insights to help you stay on top of the space industry.